{"data":{"norad_id":47270,"intl_designator":"2020-100N","name":"ONEWEB-0124","alt_names":[],"object_type":"PAYLOAD","status":"ACTIVE","operator":null,"country":"UK","launch_date":"2020-12-18","launch_site_code":"VOSTO","launch_vehicle":null,"mission":null,"orbit_class":"UNKNOWN","rcs_meters":null,"size_class":null,"mass_kg":null,"dimensions":null,"purposes":["comms"],"wikipedia_slug":null,"has_3d_model":false,"image_url":null,"decayed_at":null,"tle_current":{"epoch":"2026-09-20T04:30:57.811968Z","epoch_age_seconds":41684,"freshness":"FRESH","line1":"1 47270U 20100N   26263.18816912  .00000475  00000+0  12841-2 0  9991","line2":"2 47270  87.8976 331.8047 0001949  91.6598 268.4754 13.12442222277032","mean_motion":13.12442222,"eccentricity":0.0001949,"inclination_deg":87.8976,"raan_deg":331.8047,"arg_perigee_deg":91.6598,"mean_anomaly_deg":268.4754,"bstar":0.0012841,"rev_number":27703,"period_min":109.71911569605,"perigee_km":1212.2466371344,"apogee_km":1215.2059454454,"semimajor_km":7591.8632912899,"source":"CELESTRAK","updated_at":"2026-09-20T09:00:44.578276Z"}}}